sat.trackr.live / text

‹ back to catalog

STARLINK-1506

NORAD 45747 · 2020-038T

PAYLOAD ACTIVE UNKNOWN

§ Identity

Operator
Country
US
Launch date
2020-06-13
Launch site
AFETR
Launch vehicle
Mass (kg)
RCS (m²)

Purposes: comms

External: N2YO · Heavens-Above · Gunter

§ Orbital elements

Epoch: 2026-09-03T13:37:23.581056Z

Period
94.03 min
Inclination
53.0740°
Eccentricity
0.0004674
Mean motion
15.31506756 rev/d
Perigee alt
468.1 km
Apogee alt
474.5 km
Semi-major
6,849.5 km
B*
1.3106e-4
RAAN
96.5451°
Arg perigee
104.5825°
Mean anomaly
255.5694°
Rev number
34,389

§ Raw data

STARLINK-15061 45747U 20038T   26246.56763404  .00003679  00000+0  13106-3 0  99932 45747  53.0740  96.5451 0004674 104.5825 255.5694 15.31506756343896

JSON: /api/v1/satellites/45747 · /tle

For live sub-satellite position, see the globe view (requires WebGL).

§ Visibility from observer

Set your observer location to see the next 7 days of passes ≥ 10°. The values pass through the URL so the page stays shareable.

No JS? Fill the form by hand. The geolocation button needs JavaScript.